GW2646 Weather Reports


Display with metric or nautical units.
time (UTC)temp
F
wind
direction
speed
MPH
gust
MPH
rain 1hr
in
rain 24hr
in
rain mn
in
humidity
%
barometer
mb
20260831212548 72 0 2.0 8.0 0.00 0.00 0.00 64 1010.5
20260831212046 72 284 1.0 8.0 0.00 0.00 0.00 63 1010.6
20260831211603 72 324 2.0 8.0 0.00 0.00 0.00 64 1010.6
20260831211046 72 281 3.0 8.0 0.00 0.00 0.00 63 1010.7
20260831210546 73 73 2.0 9.0 0.00 0.00 0.00 63 1010.7
20260831210103 72 0 2.0 9.0 0.00 0.00 0.00 62 1010.7
20260831205546 72 287 1.0 8.0 0.00 0.00 0.00 63 1010.7
20260831205046 72 322 2.0 9.0 0.00 0.00 0.00 65 1010.8
20260831204602 71 273 1.0 9.0 0.00 0.00 0.00 66 1010.8
20260831204046 71 279 3.0 8.0 0.00 0.00 0.00 65 1010.9
20260831203546 71 360 3.0 8.0 0.00 0.00 0.00 65 1010.9
20260831203134 71 315 2.0 8.0 0.00 0.00 0.00 63 1011.0
20260831202546 72 290 2.0 9.0 0.00 0.00 0.00 65 1011.1
20260831202045 71 273 2.0 9.0 0.00 0.00 0.00 65 1011.3
20260831201606 71 295 3.0 8.0 0.00 0.00 0.00 65 1011.3
20260831201046 71 300 1.0 8.0 0.00 0.00 0.00 66 1011.3
20260831200548 71 310 2.0 8.0 0.00 0.00 0.00 66 1011.4
20260831200104 70 307 4.0 8.0 0.00 0.00 0.00 66 1011.3
20260831195552 70 283 2.0 6.0 0.00 0.00 0.00 66 1011.4
20260831195046 70 225 0.0 5.0 0.00 0.00 0.00 64 1011.3
20260831194611 70 12 2.0 5.0 0.00 0.00 0.00 65 1011.4
20260831194047 70 315 0.0 7.0 0.00 0.00 0.00 67 1011.5
20260831193549 69 0 1.0 7.0 0.00 0.00 0.00 68 1011.6
20260831193101 69 294 1.0 5.0 0.00 0.00 0.00 67 1011.7
20260831192546 69 313 1.0 5.0 0.00 0.00 0.00 67 1011.8
20260831192046 69 319 2.0 5.0 0.00 0.00 0.00 67 1011.8
20260831191606 68 0 1.0 5.0 0.00 0.00 0.00 68 1011.9
20260831191044 68 294 2.0 5.0 0.00 0.00 0.00 69 1011.9
20260831190547 68 304 0.0 5.0 0.00 0.00 0.00 68 1012.0
20260831190137 68 275 1.0 7.0 0.00 0.00 0.00 69 1012.1
20260831185546 67 294 1.0 7.0 0.00 0.00 0.00 69 1012.1
20260831185052 67 325 0.0 7.0 0.00 0.00 0.00 68 1012.1
20260831184609 66 0 3.0 7.0 0.00 0.00 0.00 68 1012.3
20260831184047 66 9 1.0 4.0 0.00 0.00 0.00 68 1012.3
20260831183547 66 0 1.0 4.0 0.00 0.00 0.00 69 1012.5
20260831183101 66 305 1.0 4.0 0.00 0.00 0.00 68 1012.5
20260831182550 65 352 0.0 3.0 0.00 0.00 0.00 71 1012.7
20260831182047 65 50 0.0 3.0 0.00 0.00 0.00 71 1012.7
20260831181604 65 314 0.0 4.0 0.00 0.00 0.00 71 1012.9
20260831181046 65 349 2.0 4.0 0.00 0.00 0.00 68 1013.0
20260831180546 65 0 0.0 3.0 0.00 0.00 0.00 70 1013.1
20260831180107 64 0 0.0 3.0 0.00 0.00 0.00 71 1013.1
20260831175551 64 20 0.0 4.0 0.00 0.00 0.00 72 1013.2
20260831175047 63 19 0.0 4.0 0.00 0.00 0.00 73 1013.2
20260831174602 63 0 1.0 4.0 0.00 0.00 0.00 73 1013.3
20260831174047 62 0 0.0 3.0 0.00 0.00 0.00 74 1013.3
20260831173549 62 336 1.0 3.0 0.00 0.00 0.00 73 1013.3
20260831173111 61 317 0.0 4.0 0.00 0.00 0.00 77 1013.4
20260831172550 61 360 1.0 5.0 0.00 0.00 0.00 77 1013.4
20260831172046 61 0 2.0 5.0 0.00 0.00 0.00 77 1013.5
20260831171607 60 327 1.0 3.0 0.00 0.00 0.00 78 1013.5
20260831171046 60 0 0.0 4.0 0.00 0.00 0.00 78 1013.6
20260831170546 60 326 1.0 4.0 0.00 0.00 0.00 79 1013.5
20260831170057 59 0 1.0 3.0 0.00 0.00 0.00 77 1013.5
20260831165543 59 333 0.0 3.0 0.00 0.00 0.00 80 1013.5
20260831165048 59 333 1.0 4.0 0.00 0.00 0.00 81 1013.5
20260831164604 59 0 0.0 4.0 0.00 0.00 0.00 82 1013.5
20260831164050 58 333 0.0 4.0 0.00 0.00 0.00 83 1013.6
20260831163547 58 333 0.0 3.0 0.00 0.00 0.00 83 1013.7
20260831163105 58 337 0.0 3.0 0.00 0.00 0.00 83 1013.7
20260831162547 57 339 0.0 3.0 0.00 0.00 0.00 85 1013.6
20260831162047 57 0 1.0 3.0 0.00 0.00 0.00 87 1013.7
20260831161608 56 338 0.0 3.0 0.00 0.00 0.00 88 1013.7
20260831161047 56 338 0.0 3.0 0.00 0.00 0.00 90 1013.8
20260831160547 55 338 1.0 3.0 0.00 0.00 0.00 92 1013.8
20260831160135 53 338 1.0 3.0 0.00 0.00 0.00 94 1013.8
20260831155544 53 0 0.0 3.0 0.00 0.00 0.00 95 1013.8
20260831155047 53 338 0.0 3.0 0.00 0.00 0.00 96 1013.8
20260831154631 53 338 0.0 3.0 0.00 0.00 0.00 96 1013.8
20260831154051 52 0 0.0 0.0 0.00 0.00 0.00 96 1013.9
20260831153544 52 0 0.0 1.0 0.00 0.00 0.00 97 1013.9
20260831153133 52 0 0.0 1.0 0.00 0.00 0.00 97 1013.9
20260831152546 51 60 0.0 1.0 0.00 0.00 0.00 97 1014.0
20260831152046 51 0 0.0 1.0 0.00 0.00 0.00 97 1013.9
20260831151603 51 0 0.0 2.0 0.00 0.00 0.00 97 1014.0
20260831151046 51 0 0.0 2.0 0.00 0.00 0.00 97 1014.0
20260831150550 51 0 0.0 1.0 0.00 0.00 0.00 97 1014.2
20260831150100 50 0 0.0 1.0 0.00 0.00 0.00 97 1014.1
20260831145546 50 0 0.0 1.0 0.00 0.00 0.00 97 1014.1
20260831145047 50 0 0.0 2.0 0.00 0.00 0.00 97 1014.0
20260831144607 50 0 0.0 2.0 0.00 0.00 0.00 97 1014.0
20260831144046 50 0 0.0 2.0 0.00 0.00 0.00 97 1014.0
20260831143546 49 0 0.0 0.0 0.00 0.00 0.00 97 1013.9
20260831143104 49 0 0.0 0.0 0.00 0.00 0.00 97 1013.9
20260831142546 49 0 0.0 0.0 0.00 0.00 0.00 96 1014.0
20260831142047 49 0 0.0 0.0 0.00 0.00 0.00 96 1014.0
20260831141600 49 0 0.0 0.0 0.00 0.00 0.00 96 1013.9
20260831141047 49 0 0.0 0.0 0.00 0.00 0.00 96 1013.9
20260831140546 48 0 0.0 0.0 0.00 0.00 0.00 96 1013.9
20260831135544 48 0 0.0 0.0 0.00 0.00 0.00 96 1013.9
20260831135046 48 0 0.0 0.0 0.00 0.00 0.00 96 1013.8
20260831134608 48 0 0.0 0.0 0.00 0.00 0.00 96 1013.9
20260831134047 48 0 0.0 0.0 0.00 0.00 0.00 96 1013.8
20260831133547 48 0 0.0 0.0 0.00 0.00 0.00 96 1013.8
20260831133101 48 0 0.0 0.0 0.00 0.00 0.00 96 1013.8
20260831132547 48 0 0.0 0.0 0.00 0.00 0.00 96 1013.8
20260831132047 48 0 0.0 0.0 0.00 0.00 0.00 96 1013.8
20260831131613 48 0 0.0 0.0 0.00 0.00 0.00 96 1013.9
20260831131051 48 0 0.0 0.0 0.00 0.00 0.00 96 1013.9
20260831130547 48 0 0.0 0.0 0.00 0.00 0.00 96 1014.0
20260831130137 48 0 0.0 0.0 0.00 0.00 0.00 96 1014.0
20260831125547 48 0 0.0 0.0 0.00 0.00 0.00 96 1014.1
20260831125051 48 0 0.0 0.0 0.00 0.00 0.00 96 1014.0
20260831124603 48 0 0.0 0.0 0.00 0.00 0.00 96 1014.1
20260831124045 49 0 0.0 0.0 0.00 0.00 0.00 96 1014.1
20260831123547 49 0 0.0 0.0 0.00 0.00 0.00 96 1014.1
20260831123106 49 0 0.0 0.0 0.00 0.00 0.00 95 1014.2
20260831122547 49 0 0.0 0.0 0.00 0.00 0.00 95 1014.2
20260831122047 49 0 0.0 0.0 0.00 0.00 0.00 95 1014.2
20260831121607 49 0 0.0 0.0 0.00 0.00 0.00 95 1014.3
20260831121046 49 0 0.0 0.0 0.00 0.00 0.00 95 1014.4
20260831120546 49 0 0.0 0.0 0.00 0.00 0.00 95 1014.5
20260831120147 49 0 0.0 0.0 0.00 0.00 0.00 95 1014.5
20260831115544 49 0 0.0 0.0 0.00 0.00 0.00 95 1014.6
20260831115045 50 0 0.0 0.0 0.00 0.00 0.00 95 1014.5
20260831114606 50 0 0.0 0.0 0.00 0.00 0.00 95 1014.5
20260831114046 51 0 0.0 0.0 0.00 0.00 0.00 96 1014.5
20260831113546 50 0 0.0 0.0 0.00 0.00 0.00 96 1014.6
20260831113109 50 0 0.0 0.0 0.00 0.00 0.00 96 1014.5
20260831112545 50 0 0.0 0.0 0.00 0.00 0.00 96 1014.6
20260831112045 50 0 0.0 0.0 0.00 0.00 0.00 95 1014.6
20260831111603 50 0 0.0 0.0 0.00 0.00 0.00 95 1014.7
20260831111046 50 0 0.0 0.0 0.00 0.00 0.00 96 1014.8
20260831110546 50 0 0.0 0.0 0.00 0.00 0.00 95 1014.9
20260831110110 50 0 0.0 0.0 0.00 0.00 0.00 95 1014.9
20260831105546 50 0 0.0 0.0 0.00 0.00 0.00 95 1014.9
20260831105046 50 0 0.0 0.0 0.00 0.00 0.00 95 1014.9
20260831104607 50 0 0.0 0.0 0.00 0.00 0.00 95 1014.9
20260831104046 50 0 0.0 0.0 0.00 0.00 0.00 95 1014.9
20260831103546 50 0 0.0 0.0 0.00 0.00 0.00 95 1015.0
20260831103102 50 0 0.0 0.0 0.00 0.00 0.00 95 1015.1
20260831102548 50 0 0.0 0.0 0.00 0.00 0.00 95 1015.1
20260831102047 50 0 0.0 0.0 0.00 0.00 0.00 95 1015.2
20260831101621 50 0 0.0 0.0 0.00 0.00 0.00 95 1015.1
20260831101047 50 0 0.0 0.0 0.00 0.00 0.00 95 1015.2
20260831100544 50 0 0.0 0.0 0.00 0.00 0.00 94 1015.3
20260831100107 50 0 0.0 0.0 0.00 0.00 0.00 94 1015.3
20260831095547 51 0 0.0 0.0 0.00 0.00 0.00 95 1015.3
20260831095043 51 0 0.0 0.0 0.00 0.00 0.00 94 1015.5
20260831094608 51 0 0.0 0.0 0.00 0.00 0.00 94 1015.5
20260831094049 51 0 0.0 1.0 0.00 0.00 0.00 94 1015.7
20260831093550 51 0 0.0 1.0 0.00 0.00 0.00 94 1015.8
20260831093110 51 0 0.0 1.0 0.00 0.00 0.00 94 1015.8
20260831092550 51 0 0.0 0.0 0.00 0.00 0.00 94 1015.9
20260831092047 51 0 0.0 0.0 0.00 0.00 0.00 94 1016.0
20260831091605 51 0 0.0 0.0 0.00 0.00 0.00 94 1016.0
20260831091046 51 0 0.0 0.0 0.00 0.00 0.00 94 1016.1
20260831090546 51 0 0.0 0.0 0.00 0.00 0.00 94 1016.1
20260831090119 51 0 0.0 1.0 0.00 0.00 0.00 94 1016.1
20260831085548 51 0 0.0 1.0 0.00 0.00 0.00 93 1016.2
20260831085047 52 0 0.0 0.0 0.00 0.00 0.00 93 1016.1
20260831084603 52 0 0.0 0.0 0.00 0.00 0.00 93 1016.2
20260831084046 52 0 0.0 0.0 0.00 0.00 0.00 93 1016.1
20260831083546 52 0 0.0 0.0 0.00 0.00 0.00 93 1016.2
20260831083108 52 0 0.0 0.0 0.00 0.00 0.00 93 1016.3
20260831082544 52 0 0.0 0.0 0.00 0.00 0.00 93 1016.3
20260831082045 52 0 0.0 0.0 0.00 0.00 0.00 93 1016.3
20260831081605 53 0 0.0 0.0 0.00 0.00 0.00 93 1016.3
20260831081047 53 0 0.0 0.0 0.00 0.00 0.00 93 1016.5
20260831080548 53 0 0.0 1.0 0.00 0.00 0.00 93 1016.4
20260831080106 53 0 0.0 2.0 0.00 0.00 0.00 93 1016.5
20260831075544 53 0 0.0 2.0 0.00 0.00 0.00 93 1016.4
20260831075046 53 64 0.0 0.0 0.00 0.00 0.00 93 1016.4
20260831074606 53 0 0.0 0.0 0.00 0.00 0.00 93 1016.4
20260831074046 53 0 0.0 0.0 0.00 0.00 0.00 93 1016.5
20260831073547 53 0 0.0 0.0 0.00 0.00 0.00 93 1016.4
20260831073125 53 0 0.0 0.0 0.00 0.00 0.00 93 1016.5
20260831072549 53 0 0.0 0.0 0.00 0.00 0.00 92 1016.7
20260831072046 53 0 0.0 1.0 0.00 0.00 0.00 92 1016.7
20260831071609 53 0 0.0 1.0 0.00 0.00 0.00 92 1016.7
20260831071047 53 0 0.0 0.0 0.00 0.00 0.00 92 1016.7
20260831070544 53 0 0.0 0.0 0.00 0.00 0.00 92 1016.7
20260831070138 54 0 0.0 0.0 0.00 0.00 0.00 92 1016.8
20260831065547 54 0 0.0 0.0 0.00 0.00 0.00 92 1016.8
20260831065046 54 0 0.0 0.0 0.00 0.00 0.00 92 1016.9
20260831064605 54 0 0.0 0.0 0.00 0.00 0.00 91 1016.9
20260831064046 54 0 0.0 0.0 0.00 0.00 0.00 91 1016.9
20260831063546 54 0 0.0 0.0 0.00 0.00 0.00 91 1017.1
20260831063110 54 0 0.0 0.0 0.00 0.00 0.00 91 1017.0
20260831062547 54 0 0.0 0.0 0.00 0.00 0.00 90 1017.1
20260831062046 54 0 0.0 0.0 0.00 0.00 0.00 90 1017.1
20260831061611 55 0 0.0 0.0 0.00 0.00 0.00 90 1017.1
20260831061047 55 0 0.0 0.0 0.00 0.00 0.00 90 1017.2
20260831060546 55 0 0.0 0.0 0.00 0.00 0.00 89 1017.2
20260831060112 55 0 0.0 0.0 0.00 0.00 0.00 89 1017.3
20260831055545 55 0 0.0 0.0 0.00 0.00 0.00 89 1017.3
20260831055048 55 0 0.0 0.0 0.00 0.00 0.00 88 1017.4
20260831054605 56 0 0.0 0.0 0.00 0.00 0.00 88 1017.4
20260831054046 56 0 0.0 0.0 0.00 0.00 0.00 88 1017.5
20260831053550 56 0 0.0 0.0 0.00 0.00 0.00 87 1017.5
20260831053103 56 0 0.0 0.0 0.00 0.00 0.00 87 1017.6
20260831052548 57 0 0.0 0.0 0.00 0.00 0.00 86 1017.6
20260831052044 57 0 0.0 0.0 0.00 0.00 0.00 85 1017.6
20260831051621 57 0 0.0 0.0 0.00 0.00 0.00 85 1017.6
20260831051046 58 0 0.0 0.0 0.00 0.00 0.00 83 1017.6
20260831050545 58 0 0.0 0.0 0.00 0.00 0.00 83 1017.8
20260831050107 59 0 0.0 0.0 0.00 0.00 0.00 82 1017.7
20260831045544 59 0 0.0 0.0 0.00 0.00 0.00 82 1017.7
20260831045046 59 0 0.0 1.0 0.00 0.00 0.00 82 1017.8
20260831044605 59 0 0.0 1.0 0.00 0.00 0.00 81 1017.7
20260831044045 60 0 0.0 1.0 0.00 0.00 0.00 80 1017.8
20260831043547 60 0 0.0 1.0 0.00 0.00 0.00 80 1017.8
20260831043102 60 0 0.0 1.0 0.00 0.00 0.00 80 1017.8
20260831042546 60 0 0.0 1.0 0.00 0.00 0.00 80 1017.7
20260831042046 60 0 0.0 1.0 0.00 0.00 0.00 80 1017.7
20260831041611 60 0 0.0 1.0 0.00 0.00 0.00 80 1017.8
20260831041047 60 0 0.0 1.0 0.00 0.00 0.00 80 1017.9
20260831040547 60 0 0.0 1.0 0.00 0.00 0.00 80 1017.9
20260831040107 59 0 0.0 0.0 0.00 0.00 0.00 79 1017.8
20260831035546 60 0 0.0 0.0 0.00 0.00 0.00 79 1017.9
20260831035044 60 0 0.0 0.0 0.00 0.00 0.00 78 1018.0
20260831034602 60 0 0.0 0.0 0.00 0.00 0.00 77 1017.9
20260831034049 60 0 0.0 0.0 0.00 0.00 0.00 76 1017.9
20260831033546 61 0 0.0 0.0 0.00 0.00 0.00 76 1017.9
20260831033103 61 0 0.0 0.0 0.00 0.00 0.00 75 1017.9
20260831032547 61 0 0.0 0.0 0.00 0.00 0.00 75 1017.9
20260831032048 61 0 0.0 0.0 0.00 0.00 0.00 74 1017.9
20260831031602 62 0 0.0 0.0 0.00 0.00 0.00 74 1017.9
20260831031046 62 0 0.0 0.0 0.00 0.00 0.00 73 1017.8
20260831030546 62 0 0.0 1.0 0.00 0.00 0.00 72 1017.8
20260831030104 62 0 0.0 1.0 0.00 0.00 0.00 72 1017.8
20260831025546 62 0 0.0 1.0 0.00 0.00 0.00 72 1017.8
20260831025046 63 0 0.0 0.0 0.00 0.00 0.00 69 1017.8
20260831024618 63 0 0.0 1.0 0.00 0.00 0.00 69 1017.8
20260831024046 63 0 0.0 3.0 0.00 0.00 0.00 69 1017.8
20260831023547 64 0 0.0 3.0 0.00 0.00 0.00 69 1017.8
20260831023102 64 0 0.0 2.0 0.00 0.00 0.00 68 1017.9
20260831022550 64 0 0.0 3.0 0.00 0.00 0.00 67 1018.0
20260831022046 65 0 0.0 3.0 0.00 0.00 0.00 67 1018.0
20260831021604 65 337 0.0 3.0 0.00 0.00 0.00 65 1017.9
20260831021047 65 0 0.0 3.0 0.00 0.00 0.00 68 1017.9
20260831020550 65 0 0.0 4.0 0.00 0.00 0.00 67 1017.9
20260831015545 66 315 1.0 5.0 0.00 0.00 0.00 64 1017.9
20260831015046 66 0 1.0 5.0 0.00 0.00 0.00 63 1017.9
20260831014601 66 9 2.0 5.0 0.00 0.00 0.00 62 1018.0
20260831014046 66 304 1.0 4.0 0.00 0.00 0.00 63 1018.0
20260831013547 66 15 1.0 5.0 0.00 0.00 0.00 63 1018.1
20260831013102 67 352 0.0 8.0 0.00 0.00 0.00 63 1018.1
20260831012547 67 340 4.0 8.0 0.00 0.00 0.00 61 1018.1
20260831012046 67 295 1.0 8.0 0.00 0.00 0.00 61 1018.2
20260831011604 67 314 3.0 8.0 0.00 0.00 0.00 60 1018.3
20260831011046 67 307 2.0 7.0 0.00 0.00 0.00 60 1018.4
20260831010546 67 289 2.0 6.0 0.00 0.00 0.00 59 1018.4
20260831010133 68 303 2.0 9.0 0.00 0.00 0.00 59 1018.4
20260831005548 68 342 1.0 9.0 0.00 0.00 0.00 60 1018.5
20260831005046 68 313 1.0 5.0 0.00 0.00 0.00 62 1018.5
20260831004602 68 336 0.0 5.0 0.00 0.00 0.00 61 1018.4
20260831004046 68 21 2.0 8.0 0.00 0.00 0.00 61 1018.5
20260831003545 68 24 2.0 8.0 0.00 0.00 0.00 61 1018.5
20260831003101 68 313 1.0 5.0 0.00 0.00 0.00 61 1018.6
20260831002546 69 67 1.0 6.0 0.00 0.00 0.00 62 1018.5
20260831002050 68 0 2.0 7.0 0.00 0.00 0.00 61 1018.6
20260831001610 69 342 2.0 7.0 0.00 0.00 0.00 60 1018.5
20260831001047 69 331 2.0 7.0 0.00 0.00 0.00 58 1018.5
20260831000546 69 32 2.0 7.0 0.00 0.00 0.00 58 1018.4
20260831000105 70 317 1.0 7.0 0.00 0.00 0.00 56 1018.4
20260830235546 70 317 1.0 7.0 0.00 0.00 0.00 56 1018.4
20260830235046 69 0 2.0 7.0 0.00 0.00 0.00 58 1018.4
20260830234607 70 9 2.0 7.0 0.00 0.00 0.00 57 1018.5
20260830234046 70 309 1.0 7.0 0.00 0.00 0.00 57 1018.6
20260830233545 70 301 1.0 5.0 0.00 0.00 0.00 55 1018.6
20260830233101 70 332 2.0 5.0 0.00 0.00 0.00 56 1018.7
20260830232547 70 352 1.0 6.0 0.00 0.00 0.00 56 1018.7
20260830232047 70 296 1.0 10.0 0.00 0.00 0.00 55 1018.8
20260830231605 70 0 3.0 10.0 0.00 0.00 0.00 57 1018.8
20260830231048 71 0 2.0 7.0 0.00 0.00 0.00 55 1018.8
20260830230546 70 352 2.0 7.0 0.00 0.00 0.00 56 1018.8
20260830230100 70 309 3.0 7.0 0.00 0.00 0.00 55 1018.9
20260830225544 70 352 3.0 7.0 0.00 0.00 0.00 55 1018.9
20260830225046 70 349 2.0 7.0 0.00 0.00 0.00 55 1019.1
20260830224610 70 298 1.0 6.0 0.00 0.00 0.00 55 1019.0
20260830224046 70 282 1.0 6.0 0.00 0.00 0.00 54 1019.1
20260830223544 70 319 2.0 6.0 0.00 0.00 0.00 54 1019.1
20260830223106 71 276 1.0 6.0 0.00 0.00 0.00 53 1019.2
20260830222546 71 298 2.0 6.0 0.00 0.00 0.00 53 1019.2
20260830222045 70 165 2.0 6.0 0.00 0.00 0.00 55 1019.3
20260830221602 69 321 1.0 5.0 0.00 0.00 0.00 56 1019.2
20260830221047 70 360 1.0 7.0 0.00 0.00 0.00 55 1019.3
20260830220545 69 311 1.0 7.0 0.00 0.00 0.00 55 1019.3
20260830220126 69 15 1.0 6.0 0.00 0.00 0.00 55 1019.3
20260830215547 69 24 1.0 5.0 0.00 0.00 0.00 57 1019.3
20260830215050 69 329 1.0 5.0 0.00 0.00 0.00 55 1019.2
20260830214606 70 0 1.0 5.0 0.00 0.00 0.00 56 1019.4
20260830214046 69 299 2.0 8.0 0.00 0.00 0.00 56 1019.4
20260830213543 69 331 1.0 8.0 0.00 0.00 0.00 59 1019.4
20260830213108 69 328 2.0 8.0 0.00 0.00 0.00 56 1019.5